カタログに戻る

NOAA 16 DEB

運用中PO
NORAD 41493·DEBRIS·🇺🇸 United States

打ち上げ Sep 21, 2000 から Vandenberg Space Force Base

Loading…

次のパス (今後24時間)

TLE

最新Source: Space-Track

元期: Sep 14, 2026, 11:09 UTC

1 41493U 00055LR  26257.46525995  .00005384  00000-0  12512-2 0  9991
2 41493  98.9201  76.3872 0022108 196.9179 163.1281 14.55237253546206

AllMySatでNOAA 16 DEBをリアルタイム追跡

Download on the App Store